Regional Weather Roundup
Issued by NWS

Home | Current Version | Previous Version | Text Only | Print | Product List | Glossary Off
Versions: 1 2 3 4 5 6 7 8 9 10 11 12 13 14 15 16 17 18 19 20 21 22 23 24 25 26 27 28 29 30 31 32 33 34 35 36 37 38 39 40 41 42 43 44 45 46 47 48 49 50

000
ASUS43 KLSX 271707
RWRMO

WEATHER SUMMARY FOR MISSOURI
NATIONAL WEATHER SERVICE SPRINGFIELD MO
1200 PM CDT THU JUL 27 2017

NOTE: "FAIR" INDICATES FEW OR NO CLOUDS BELOW 12,000 FEET WITH NO
       SIGNIFICANT WEATHER AND/OR OBSTRUCTIONS TO VISIBILITY.
       CURRENT SKY AND/OR WEATHER CONDITIONS ARE NOT AVAILABLE FOR
       CHILLICOTHE AND FARMINGTON.

MOZ001>031-035>038-043-044-053-054-271800-
...NORTHERN AND WESTERN MISSOURI...

CITY           SKY/WX    TMP DP  RH WIND       PRES   REMARKS
KANSAS CTY INT CLOUDY    80  74  81 N8        29.98F
KANSAS C DTWN  CLOUDY   N/A N/A N/A NE7       29.96F
LEE`S SUMMIT   CLOUDY    79  76  90 N12       29.98S
ST JOSEPH      PTSUNNY   80  75  84 N10       29.99F
CHILLICOTHE      N/A     83  74  74 VRB6      29.98F
KIRKSVILLE     CLOUDY    80  73  79 NE8       29.99S

$$
MOZ066>068-077>081-088>096-101>105-271800-
...SOUTHWEST MISSOURI...

CITY           SKY/WX    TMP DP  RH WIND       PRES   REMARKS
SPRINGFIELD    CLOUDY    75  73  93 SW9       30.00F
JOPLIN         CLOUDY    81  76  84 S10       30.00F
BRANSON        LGT RAIN  73  73 100 SW3       30.05F FOG

$$
MOZ032>034-039>042-045>050-055>058-069>072-271800-
...CENTRAL MISSOURI...

CITY           SKY/WX    TMP DP  RH WIND       PRES   REMARKS
COLUMBIA       CLOUDY    79  75  87 W7        29.97F
JEFFERSON CITY CLOUDY    79  76  90 W6        29.95F
ROLLA          CLOUDY    75  73  93 SW9       30.00F
SEDALIA        CLOUDY    80  76  87 SW6       29.98S
WHITEMAN AFB   CLOUDY    77  77 100 W7        29.95F
WARRENSBURG    CLOUDY    77  72  83 S5        29.96S
OSAGE BEACH    CLOUDY    77  73  87 SW8       29.98F

$$
MOZ051-052-059>065-271800-
...EAST CENTRAL MISSOURI...

CITY           SKY/WX    TMP DP  RH WIND       PRES   REMARKS
ST LOUIS INTL  CLOUDY    81  73  76 W10       29.96S
SPIRIT OF STL  CLOUDY    80  75  84 SW10      29.94F
ST CHARLES     CLOUDY    79  75  87 W9        29.94S

$$
MOZ072>076-082>087-097>100-106>115-271800-
...SOUTH CENTRAL AND SOUTHEAST MISSOURI...

CITY           SKY/WX    TMP DP  RH WIND       PRES   REMARKS
CAPE GIRARDEAU PTSUNNY   84  76  76 W8        29.97S HX  93
FARMINGTON     CLOUDY    81  73  78 W6        30.01S
POPLAR BLUFF   CLOUDY    85  75  72 W8        29.99R HX  93
WEST PLAINS    LGT RAIN  77  74  90 VRB5      30.04R

$$



USA.gov is the U.S. government's official web portal to all federal, state and local government web resources and services.